Weather History for KPOV - June, 2013

Change the Weather History Date:

Thursday, June 20, 2013

  Actual Average (KCAK) Record (KCAK)
Temperature  
Mean Temperature 62 °F 69 °F  
Max Temperature 77 °F 79 °F 95 °F (1933)
Min Temperature 47 °F 59 °F 41 °F (1914)
Degree Days  
Heating Degree Days 3 1  
Month to date heating degree days 43  
Since 1 June heating degree days 43  
Since 1 July heating degree days 6144  
Cooling Degree Days 0 5  
Month to date cooling degree days 74  
Year to date cooling degree days 116  
Since 1 June cooling degree days 74  
Growing Degree Days 12 (Base 50)    
Moisture  
Dew Point 50 °F    
Average Humidity 63    
Maximum Humidity 100    
Minimum Humidity 36    
Precipitation  
Precipitation 0.00 in 0.13 in 0.62 in (1993)
Month to date precipitation 2.55  
Year to date precipitation 18.28  
Snow  
Snow 0.00 in 0.00 in - ()
Month to date snowfall 0.0  
Since 1 June snowfall 0.0  
Since 1 July snowfall 47.5  
Snow Depth -    
Sea Level Pressure  
Sea Level Pressure 30.22 in    
Wind  
Wind Speed 2 mph (NNE)    
Max Wind Speed 9 mph    
Max Gust Speed -    
Visibility 10 miles    
Events      
T = Trace of Precipitation, MM = Missing Value Source: NWS Daily Summary

Daily Weather History Graph

Daily Weather History Graph

Search for Another Location

Airport or City:

Trip Planner

Search our weather history database for the weather conditions in past years. The results will help you decide how hot, cold, wet, or windy it might be!

Date:

Astronomy

Jun. 20, 2013 Rise Set
Actual Time 5:52 AM EDT 9:01 PM EDT
Civil Twilight 5:18 AM EDT 9:35 PM EDT
Nautical Twilight 4:34 AM EDT 10:18 PM EDT
Astronomical Twilight 3:43 AM EDT 11:10 PM EDT
Moon 6:00 PM EDT (6/20) 3:18 AM EDT (6/20)
Length of Visible Light 16h 16m
Length of Day
15h 09m
Waxing Gibbous, 89% of the Moon is Illuminated
Jun 20
Waxing Gibbous
Jun 23
Full
Jun 30
Last Quarter
Jul 8
New
Jul 15
First Quarter

Hourly Weather History & Observations

Time (EDT) Temp. Dew Point Humidity Pressure Visibility Wind Dir Wind Speed Gust Speed Precip Events Conditions
12:14 AM 54.3 °F 47.1 °F 77% 30.19 in 10.0 mi ENE 3.5 mph - N/A   Clear
12:33 AM 53.4 °F 47.3 °F 80% 30.20 in 10.0 mi ENE 4.6 mph - N/A   Clear
12:53 AM 53.4 °F 46.6 °F 78% 30.20 in 10.0 mi East 3.5 mph - N/A   Clear
1:14 AM 54.1 °F 46.2 °F 75% 30.19 in 10.0 mi ENE 3.5 mph - N/A   Clear
1:33 AM 53.8 °F 46.6 °F 77% 30.19 in 10.0 mi ENE 3.5 mph - N/A   Clear
1:53 AM 52.3 °F 46.4 °F 80% 30.19 in 10.0 mi Calm Calm - N/A   Clear
2:14 AM 51.8 °F 46.6 °F 82% 30.19 in 10.0 mi Calm Calm - N/A   Clear
2:34 AM 51.8 °F 48.0 °F 87% 30.19 in 10.0 mi Calm Calm - N/A   Clear
2:53 AM 51.8 °F 47.3 °F 85% 30.19 in 10.0 mi Calm Calm - N/A   Clear
3:14 AM 49.1 °F 49.3 °F 100% 30.19 in 10.0 mi ENE 3.5 mph - N/A   Clear
3:33 AM 50.7 °F 50.7 °F 100% 30.19 in 10.0 mi East 3.5 mph - N/A   Clear
3:53 AM 50.0 °F 50.2 °F 100% 30.19 in 10.0 mi Calm Calm - N/A   Clear
4:14 AM 50.2 °F 50.4 °F 100% 30.19 in 10.0 mi Calm Calm - N/A   Clear
4:33 AM 50.9 °F 50.9 °F 100% 30.20 in 10.0 mi Calm Calm - N/A   Clear
4:53 AM 49.3 °F 49.5 °F 100% 30.20 in 10.0 mi Calm Calm - N/A   Clear
5:14 AM - - N/A% 30.21 in 10.0 mi Calm Calm - N/A   Clear
5:33 AM 47.7 °F 47.8 °F 100% 30.21 in 10.0 mi Calm Calm - N/A   Clear
5:54 AM 48.4 °F 48.4 °F 100% 30.21 in 10.0 mi Calm Calm - N/A   Clear
6:14 AM 49.3 °F 49.3 °F 100% 30.21 in 10.0 mi Calm Calm - N/A   Clear
6:33 AM 50.2 °F 50.4 °F 100% 30.21 in 10.0 mi Calm Calm - N/A   Clear
6:54 AM 51.8 °F 51.8 °F 100% 30.22 in 10.0 mi Calm Calm - N/A   Clear
7:14 AM 54.7 °F 54.7 °F 100% 30.22 in 10.0 mi Calm Calm - N/A   Clear
7:33 AM 57.2 °F 54.0 °F 89% 30.23 in 10.0 mi Calm Calm - N/A   Clear
7:54 AM 59.5 °F 52.2 °F 77% 30.23 in 10.0 mi Calm Calm - N/A   Unknown
8:14 AM 61.9 °F 51.3 °F 68% 30.24 in 10.0 mi East 3.5 mph - N/A   Unknown
8:33 AM 63.3 °F 51.6 °F 66% 30.24 in 10.0 mi Calm Calm - N/A   Unknown
8:54 AM 64.6 °F 51.4 °F 62% 30.25 in 10.0 mi SE 4.6 mph - N/A   Unknown
9:14 AM 66.4 °F 52.9 °F 62% 30.25 in 10.0 mi Calm Calm - N/A   Clear
9:34 AM 67.6 °F 51.8 °F 57% 30.25 in 10.0 mi SSE 3.5 mph - N/A   Clear
9:54 AM 70.0 °F 52.7 °F 54% 30.25 in 10.0 mi Calm Calm - N/A   Clear
10:14 AM 70.7 °F 51.1 °F 50% 30.25 in 10.0 mi Calm Calm - N/A   Clear
10:33 AM 70.9 °F 45.3 °F 40% 30.25 in 10.0 mi West 3.5 mph - N/A   Clear
10:54 AM 71.4 °F 45.3 °F 39% 30.25 in 10.0 mi Calm Calm - N/A   Clear
11:14 AM 71.8 °F 48.0 °F 43% 30.25 in 10.0 mi Calm Calm - N/A   Clear
11:33 AM 73.4 °F 48.7 °F 42% 30.25 in 10.0 mi WNW 4.6 mph - N/A   Clear
11:54 AM 73.0 °F 47.7 °F 40% 30.25 in 10.0 mi NW 4.6 mph - N/A   Clear
12:14 PM 74.1 °F 49.5 °F 42% 30.25 in 10.0 mi NNW 8.1 mph - N/A   Clear
12:33 PM 73.4 °F 46.8 °F 39% 30.25 in 10.0 mi West 4.6 mph - N/A   Clear
12:54 PM 73.4 °F 47.5 °F 40% 30.24 in 10.0 mi Calm Calm - N/A   Clear
1:14 PM 74.3 °F 48.2 °F 40% 30.24 in 10.0 mi NNW 3.5 mph - N/A   Clear
1:33 PM 74.1 °F 49.8 °F 42% 30.23 in 10.0 mi South 3.5 mph - N/A   Clear
1:54 PM 75.6 °F 50.0 °F 41% 30.23 in 10.0 mi Calm Calm - N/A   Clear
2:14 PM 74.8 °F 49.6 °F 41% 30.23 in 10.0 mi Calm Calm - N/A   Clear
2:33 PM 76.1 °F 51.3 °F 42% 30.22 in 10.0 mi Calm Calm - N/A   Clear
2:54 PM 76.5 °F 49.5 °F 39% 30.23 in 10.0 mi West 4.6 mph - N/A   Mostly Cloudy
3:14 PM 75.7 °F 50.5 °F 41% 30.24 in 10.0 mi NW 3.5 mph - N/A   Mostly Cloudy
3:34 PM 77.4 °F 48.2 °F 36% 30.24 in 10.0 mi WNW 6.9 mph - N/A   Mostly Cloudy
3:53 PM 77.0 °F 50.5 °F 39% 30.24 in 10.0 mi NNW 4.6 mph - N/A   Scattered Clouds
4:14 PM 77.0 °F 48.4 °F 36% 30.24 in 10.0 mi Calm Calm - N/A   Clear
4:33 PM 77.0 °F 48.6 °F 37% 30.24 in 10.0 mi NNW 9.2 mph - N/A   Clear
4:53 PM 76.5 °F 48.4 °F 37% 30.24 in 10.0 mi North 8.1 mph - N/A   Clear
5:14 PM 76.6 °F 48.4 °F 37% 30.23 in 10.0 mi NW 4.6 mph - N/A   Clear
5:33 PM 76.1 °F 47.3 °F 36% 30.24 in 10.0 mi NW 8.1 mph - N/A   Clear
5:53 PM 75.2 °F 47.5 °F 37% 30.24 in 10.0 mi North 6.9 mph - N/A   Clear
6:14 PM 76.1 °F 47.5 °F 36% 30.23 in 10.0 mi WNW 3.5 mph - N/A   Clear
6:33 PM 75.2 °F 47.5 °F 37% 30.23 in 10.0 mi North 5.8 mph - N/A   Clear
6:54 PM 75.0 °F 46.6 °F 36% 30.22 in 10.0 mi North 3.5 mph - N/A   Clear
7:14 PM 74.5 °F 47.5 °F 38% 30.22 in 10.0 mi NE 3.5 mph - N/A   Clear
7:33 PM 74.3 °F 48.0 °F 39% 30.22 in 10.0 mi NE 3.5 mph - N/A   Clear
7:54 PM 73.2 °F 48.7 °F 42% 30.22 in 10.0 mi Calm Calm - N/A   Clear
8:14 PM 70.3 °F 52.9 °F 54% 30.22 in 10.0 mi NE 3.5 mph - N/A   Clear
8:33 PM 68.2 °F 53.4 °F 59% 30.22 in 10.0 mi Calm Calm - N/A   Clear
8:54 PM 66.0 °F 54.9 °F 67% 30.22 in 10.0 mi Calm Calm - N/A   Clear
9:14 PM 64.9 °F 54.7 °F 69% 30.22 in 10.0 mi Calm Calm - N/A   Clear
9:33 PM 63.0 °F 53.8 °F 72% 30.22 in 10.0 mi Calm Calm - N/A   Clear
9:54 PM 60.8 °F 54.5 °F 80% 30.22 in 10.0 mi Calm Calm - N/A   Clear
10:14 PM 60.6 °F 54.1 °F 79% 30.23 in 10.0 mi Calm Calm - N/A   Clear
10:33 PM 60.6 °F 52.9 °F 76% 30.23 in 10.0 mi East 3.5 mph - N/A   Clear
10:54 PM 59.2 °F 51.4 °F 75% 30.24 in 10.0 mi ENE 4.6 mph - N/A   Clear
11:13 PM 60.1 °F 51.1 °F 72% 30.24 in 10.0 mi East 3.5 mph - N/A   Clear
11:33 PM 58.1 °F 52.0 °F 80% 30.24 in 10.0 mi East 3.5 mph - N/A   Clear
11:54 PM 58.5 °F 51.1 °F 76% 30.25 in 10.0 mi ENE 3.5 mph - N/A   Clear